Regional Weather Roundup
Issued by NWS

Home | Current Version | Previous Version | Graphics & Text | Print | Product List | Glossary On
Versions: 1 2 3 4 5 6 7 8 9 10 11 12 13 14 15 16 17 18 19 20 21 22 23 24 25 26 27 28 29 30 31 32 33 34 35 36 37 38 39 40 41 42 43 44 45 46 47 48 49 50
000
ASUS43 KMPX 161601
RWRMN
WEATHER ROUNDUP FOR MINNESOTA
NATIONAL WEATHER SERVICE TWIN CITIES/CHANHASSEN MN
1100 AM CDT WED APR 16 2014


NOTE: "FAIR" INDICATES FEW OR NO CLOUDS BELOW 12,000 FEET WITH NO
SIGNIFICANT WEATHER AND/OR OBSTRUCTIONS TO VISIBILITY. N/A MEANS
CURRENT SKY AND/OR WEATHER CONDITIONS ARE NOT AVAILABLE.

MNZ060>063-068>070-161700-
   Twin Cities Metro

CITY           SKY/WX    TMP DP  RH WIND       PRES   REMARKS
TWIN CITIES    CLOUDY    34  27  75 E18       29.92F WCI  23
ST PAUL        CLOUDY    32  27  81 E14       29.95F WCI  22
CRYSTAL        LGT SNOW  31  27  85 E13       29.92F FOG     WCI  21
BLAINE         CLOUDY    32  30  93 MISG      29.94F
EDEN PRAIRIE   CLOUDY    37  24  59 E12G20    29.90S
LAKEVILLE      CLOUDY    36  25  64 E18       29.89F
SOUTH ST PAUL  CLOUDY    36  28  74 E13G18    29.93F
LAKE ELMO      FLURRIES  32  28  86 E14       29.97F WCI  22
$$
MNZ001>005-007-008-013>017-022>024-027-028-161700-
   Northwest Minnesota

CITY           SKY/WX    TMP DP  RH WIND       PRES   REMARKS
BEMIDJI        PTSUNNY   31  11  43 E20G25    30.07S WCI  19
HALLOCK        CLOUDY    32   7  34 E16       30.18R WCI  21
ROSEAU         SUNNY     30  12  47 E15       30.19S WCI  19
WARROAD        SUNNY     27  12  54 NE13      30.21R WCI  16
THIEF RVR FALL MOSUNNY   34   7  32 E17       30.12R WCI  23
CROOKSTON      MOSUNNY   36  12  38 E14       30.11S
FOSSTON        MOSUNNY   36  12  38 E17G24    30.07S
DETROIT LAKES  MIX PCPN  30  23  74 E16G28    30.02R WCI  19
MOORHEAD       CLOUDY    30  27  86 E14G21    30.03R WCI  20
PARK RAPIDS    FLURRIES  27  21  78 E12G23    30.03R WCI  17
$$
MNZ006-009>011-018-025>026-161700-
   North Central Minnesota

CITY           SKY/WX    TMP DP  RH WIND       PRES   REMARKS
BAUDETTE       MOSUNNY   31   7  36 E15       30.18S WCI  20
FLAG ISLAND    SUNNY     27   3  36 E5        30.22S WCI  21
INTL FALLS     MOSUNNY   30   5  34 E12       30.19S WCI  20
WASKISH        CLOUDY    36   7  30 NE14G23   30.13S
BIG FORK       PTSUNNY   34   7  32 E9        30.13S WCI  26
LONGVILLE      LGT SNOW  27  21  80 NE9G20    30.08R WCI  17
GRAND RAPIDS   CLOUDY    25  19  80 E9G17     30.11R WCI  15
CRANE LAKE     PTSUNNY   34  25  69 NE3       30.21S
ORR            PTSUNNY   32   1  27 E6        30.14S WCI  26
COOK           PTSUNNY   30   9  40 E6        30.16S WCI  24
$$
MNZ012-019>021-037-161700-
   Northeast Minnesota

CITY           SKY/WX    TMP DP  RH WIND       PRES   REMARKS
DULUTH         LGT SNOW  25  20  81 E14       30.13S VSB 3/4 WCI  13
ELY            PTSUNNY   28   9  43 E7        30.17S WCI  21
HIBBING        CLOUDY    31  12  45 E14G21    30.13S WCI  21
EVELETH        CLOUDY    32  12  43 E12G18    30.15S WCI  23
DULUTH HARBOR  LGT SNOW  28  27  93 E14       30.19S WCI  17
TWO HARBORS    CLOUDY    28  18  64 E16       30.16R WCI  17
SILVER BAY     CLOUDY    28  18  64 E9        30.18S WCI  20
GRAND MARAIS     N/A     31  16  54 E14       30.27S WCI  21
G MARAIS ARPRT PTSUNNY   27   7  43 SE5       30.20S WCI  21
$$
MNZ029>031-032-039>041-046>048-054>057-064-161700-
   West Central Minnesota

CITY           SKY/WX    TMP DP  RH WIND       PRES   REMARKS
FERGUS FALLS   LGT SNOW  28  21  74 E23G31    29.94R WCI  14
WHEATON        LGT SNOW  30  28  93 NE16      29.94R WCI  19
MORRIS         SNOW      28  27  93 E22G29    29.87R VSB 1/4 WCI  15
ALEXANDRIA     SNOW      27  24  89 E21G29    29.91S VSB 1/2 WCI  13
ELBOW LAKE     LGT SNOW  28  25  91 NE16G26   29.92R VSB 3/4 WCI  15
WADENA         LGT SNOW  27  23  86 NE15G22   29.98S WCI  15
GLENWOOD       SNOW      27  27 100 NE21G28   29.89R VSB 1/2 WCI  13
APPLETON       SNOW      30  28  93 E18       29.84S VSB 1/2 WCI  18
BENSON         SNOW      28  27  93 E17G25    29.85R VSB 1/2 WCI  16
ORTONVILLE     SNOW      28  27  93 NE15G22   29.85R VSB 1/4 WCI  17
MADISON        SNOW      34  34 100 E20       29.81R VSB 1/2 WCI  22
WILLMAR        SNOW      30  28  93 E17       29.85S VSB 1/4 WCI  18
$$
MNZ033>034-036-042>043-049>051-058-059-161700-
   Central Minnesota

CITY           SKY/WX    TMP DP  RH WIND       PRES   REMARKS
ST CLOUD       SNOW      29  26  89 E10G21    29.93F VSB 1/4 WCI  20
SAUK CENTRE    SNOW      27  26  93 NE18G24   29.91S VSB 1/2 WCI  14
PAYNESVILLE    SNOW      28  27  93 E13G20    29.89S VSB 1/4 WCI  18
AITKIN         LGT SNOW  28  23  80 NE16G25   30.04S WCI  17
PINE RIVER     LGT SNOW  27  21  80 E13G18    30.08R WCI  16
BRAINERD       SNOW      31  23  72 E15G23    30.02S VSB 1/2 WCI  20
STAPLES        LGT SNOW  27  23  86 E13G20    29.99S VSB 3/4 WCI  16
LONG PRAIRIE   CLOUDY    25  23  93 NE18      29.93S VSB 1/2 WCI  11
LITTLE FALLS   SNOW      28  25  86 NE10G21   29.96F VSB 1/2 WCI  19
LITCHFIELD     SNOW      30  30 100 E13G18    29.88R VSB 1/4 WCI  20
BUFFALO        SNOW      30  28  91 E10G21    29.93R VSB 1/2 WCI  21
MAPLE LAKE     SNOW      30  29  96 E13       29.92S VSB 1/2 WCI  20
$$
MNZ037-044-045-052-053-161700-
   East Central Minnesota

CITY           SKY/WX    TMP DP  RH WIND       PRES   REMARKS
PRINCETON      SNOW      30  27  86 NE10G17   29.95F VSB 1/2 WCI  21
MORA           LGT SNOW  28  25  86 E10G20    30.02F VSB 3/4 WCI  19
CAMBRIDGE      SNOW      30  25  80 E9G16     29.96F VSB 1/4 WCI  22
RUSH CITY      MIX PCPN  29  27  91 E10G16    30.01F WCI  20
MOOSE LAKE     LGT SNOW  28  25  86 NE10      30.06F VSB 3/4 WCI  19
HINCKLEY       SNOW      28  27  93 E9G16     30.04S VSB 1/2 WCI  20
CLOQUET        LGT SNOW  27  23  86 E13       30.11S VSB 3/4 WCI  16
MCGREGOR       CLOUDY    28  25  86 E14       30.08S WCI  17
$$
MNZ071>073-080-081-089-090-097-098-161700-
   Southwest Minnesota

CITY           SKY/WX    TMP DP  RH WIND       PRES   REMARKS
MONTEVIDEO     SNOW      30  30 100 SE18G26   29.82S VSB 1/2 WCI  18
GRANITE FALLS  SNOW      32  30  93 E14G21    29.82R VSB 1/2 WCI  22
CANBY          SNOW      32  31  96 NE13      29.78F VSB 1/2 WCI  22
MARSHALL       CLOUDY    34  28  80 E17       29.73F WCI  23
REDWOOD FALLS  LGT SNOW  33  32  96 E12       29.79F FOG     WCI  24
OLIVIA         LGT SNOW  32  30  93 E14G21    29.81F VSB 3/4 WCI  22
PIPESTONE      LGT RAIN  39  34  81 SE13      29.64F
WINDOM         CLOUDY    46  32  57 SE9       29.72F
WORTHINGTON    CLOUDY    46  27  46 S21G28    29.70F
JACKSON        CLOUDY    50  28  43 S23G31    29.73S
TRACY          LGT RAIN  36  32  85 E10       29.73F
SLAYTON        LGT RAIN  38  35  86 E7        29.70S
$$
MNZ065>067-074>077-082>085-091>093-161700-
   South Central Minnesota

CITY           SKY/WX    TMP DP  RH WIND       PRES   REMARKS
MANKATO        CLOUDY    43  27  52 SE17      29.84R
NEW ULM        CLOUDY    43  28  56 SE12      29.80S
ST JAMES       CLOUDY    43  30  61 SE15      29.79S
FAIRMONT       CLOUDY    45  30  57 S23G29    29.77F
GLENCOE        LGT SNOW  33  30  89 E14       29.86S VSB 3/4 WCI  23
FARIBAULT      CLOUDY    43  25  49 SE13G21   29.88F
OWATONNA       CLOUDY    41  27  56 SE17      29.86F
WASECA         CLOUDY    43  30  61 SE15G26   29.86S
ALBERT LEA     CLOUDY    43  28  56 S18G33    29.82F
$$
MNZ078>079-086>088-094>096-161700-
   Southeast Minnesota

CITY           SKY/WX    TMP DP  RH WIND       PRES   REMARKS
ROCHESTER      CLOUDY    40  26  57 S23G36    29.88F
RED WING       CLOUDY    37  25  60 E13       29.95F
STANTON        CLOUDY    40  24  52 E12G17    29.89F
DODGE CENTER   CLOUDY    41  27  56 SE21G30   29.87R
WINONA         CLOUDY    43  23  45 SE15G22   29.96F
AUSTIN         CLOUDY    39  28  65 SE12G22   29.86S
PRESTON        CLOUDY    42  27  55 S17G25    29.92F
$$
ABBREVIATIONS USED IN REMARKS
   TC - TEMPERATURES IN CELSIUS
  WCI - WIND CHILL INDEX
   HX - HEAT INDEX
  VSB - VISIBILITY
$$


USA.gov is the U.S. government's official web portal to all federal, state and local government web resources and services.